• In United Kingdom
  • List of Countries
  • For 7 days
  • Water Temperature
  • Satellite Maps
  • Weather Map
  • Weather Widgets
  • user-avatar
    Login

    Hourly Weather Wlora

    Today, 20 September, Wednesday

    Time Temperature Precipitation Wind Pressure Humidity
    00:00 +21°C° 0 mm 4 mps 757 mmHg 79%
    01:00 +21°C° 0 mm 5 mps 757 mmHg 82%
    02:00 +21°C° 0.1 mm 5 mps 757 mmHg 83%
    03:00 +20°C° 0.1 mm 5 mps 757 mmHg 85%
    04:00 +20°C° 0.1 mm 5 mps 757 mmHg 86%
    05:00 +21°C° 0 mm 4 mps 757 mmHg 81%
    06:00 +21°C° 0 mm 4 mps 757 mmHg 77%
    07:00 +22°C° 0 mm 3 mps 757 mmHg 72%
    08:00 +24°C° 0 mm 3 mps 758 mmHg 64%
    09:00 +25°C° 0 mm 3 mps 758 mmHg 56%
    10:00 +26°C° 0 mm 3 mps 758 mmHg 48%
    11:00 +26°C° 0 mm 4 mps 758 mmHg 44%
    12:00 +27°C° 0 mm 4 mps 758 mmHg 40%
    13:00 +27°C° 0 mm 5 mps 758 mmHg 37%
    14:00 +26°C° 0.3 mm 5 mps 758 mmHg 41%
    15:00 +25°C° 0.3 mm 5 mps 758 mmHg 45%
    16:00 +23°C° 0.3 mm 5 mps 758 mmHg 49%
    17:00 +22°C° 0.3 mm 5 mps 758 mmHg 56%
    18:00 +20°C° 0.3 mm 4 mps 759 mmHg 63%
    19:00 +19°C° 0.3 mm 4 mps 759 mmHg 70%
    20:00 +19°C° 0.3 mm 4 mps 759 mmHg 71%
    21:00 +17°C° 0.3 mm 5 mps 760 mmHg 72%
    22:00 +17°C° 0.3 mm 5 mps 760 mmHg 73%
    23:00 +17°C° 0.2 mm 5 mps 760 mmHg 75%

    Tomorrow, 21 September, Thursday

    Time Temperature Precipitation Wind Pressure Humidity
    00:00 +16°C° 0.2 mm 5 mps 760 mmHg 78%
    01:00 +16°C° 0.2 mm 5 mps 760 mmHg 81%
    02:00 +16°C° 0.3 mm 6 mps 760 mmHg 81%
    03:00 +16°C° 0.3 mm 6 mps 760 mmHg 81%
    04:00 +16°C° 0.3 mm 6 mps 760 mmHg 81%
    05:00 +17°C° 0.4 mm 6 mps 760 mmHg 78%
    06:00 +17°C° 0.4 mm 6 mps 760 mmHg 76%
    07:00 +19°C° 0.4 mm 6 mps 761 mmHg 73%
    08:00 +18°C° 0.2 mm 7 mps 761 mmHg 69%
    09:00 +20°C° 0.2 mm 7 mps 761 mmHg 64%
    10:00 +21°C° 0.2 mm 7 mps 761 mmHg 60%
    11:00 +21°C° 0.1 mm 8 mps 761 mmHg 57%
    12:00 +22°C° 0.1 mm 8 mps 761 mmHg 55%
    13:00 +23°C° 0.1 mm 8 mps 761 mmHg 52%
    14:00 +22°C° 0 mm 9 mps 761 mmHg 53%
    15:00 +22°C° 0 mm 9 mps 761 mmHg 54%
    16:00 +21°C° 0 mm 9 mps 761 mmHg 54%
    17:00 +19°C° 0 mm 9 mps 761 mmHg 60%
    18:00 +18°C° 0 mm 8 mps 762 mmHg 65%
    19:00 +17°C° 0 mm 8 mps 762 mmHg 70%
    20:00 +16°C° 0.1 mm 7 mps 763 mmHg 72%
    21:00 +16°C° 0.1 mm 7 mps 763 mmHg 73%
    22:00 +15°C° 0.1 mm 6 mps 763 mmHg 74%
    23:00 +15°C° 0.1 mm 6 mps 763 mmHg 73%

    Day after tomorrow, 22 September, Friday

    Time Temperature Precipitation Wind Pressure Humidity
    00:00 +15°C° 0.1 mm 6 mps 764 mmHg 72%
    01:00 +15°C° 0.1 mm 6 mps 764 mmHg 71%
    02:00 +15°C° 0 mm 6 mps 764 mmHg 70%
    03:00 +15°C° 0 mm 6 mps 764 mmHg 69%
    04:00 +15°C° 0 mm 5 mps 764 mmHg 68%
    05:00 +15°C° 0 mm 5 mps 764 mmHg 64%
    06:00 +16°C° 0 mm 5 mps 764 mmHg 61%
    07:00 +17°C° 0 mm 5 mps 764 mmHg 57%
    08:00 +19°C° 0 mm 5 mps 764 mmHg 50%
    09:00 +21°C° 0 mm 5 mps 765 mmHg 44%
    10:00 +22°C° 0 mm 5 mps 765 mmHg 38%
    11:00 +23°C° 0 mm 5 mps 765 mmHg 37%
    12:00 +25°C° 0 mm 5 mps 765 mmHg 36%
    13:00 +24°C° 0 mm 6 mps 764 mmHg 35%
    14:00 +24°C° 0 mm 6 mps 764 mmHg 37%
    15:00 +23°C° 0 mm 6 mps 764 mmHg 39%
    16:00 +23°C° 0 mm 6 mps 764 mmHg 42%
    17:00 +21°C° 0 mm 6 mps 765 mmHg 46%
    18:00 +20°C° 0 mm 5 mps 765 mmHg 51%
    19:00 +17°C° 0 mm 5 mps 765 mmHg 56%
    20:00 +18°C° 0 mm 4 mps 765 mmHg 56%
    21:00 +17°C° 0 mm 4 mps 766 mmHg 56%
    22:00 +17°C° 0 mm 4 mps 766 mmHg 57%
    23:00 +17°C° 0 mm 3 mps 766 mmHg 56%

    23 September, Saturday

    Time Temperature Precipitation Wind Pressure Humidity
    00:00 +17°C° 0 mm 3 mps 766 mmHg 55%
    01:00 +16°C° 0 mm 3 mps 766 mmHg 53%
    02:00 +16°C° 0 mm 3 mps 765 mmHg 54%
    03:00 +15°C° 0 mm 4 mps 765 mmHg 54%
    04:00 +15°C° 0 mm 4 mps 765 mmHg 54%
    05:00 +17°C° 0 mm 4 mps 765 mmHg 53%
    06:00 +18°C° 0 mm 4 mps 765 mmHg 52%
    07:00 +18°C° 0 mm 4 mps 765 mmHg 51%
    08:00 +20°C° 0 mm 4 mps 765 mmHg 46%
    09:00 +22°C° 0 mm 4 mps 765 mmHg 41%
    10:00 +25°C° 0 mm 3 mps 765 mmHg 36%
    11:00 +26°C° 0 mm 4 mps 765 mmHg 35%
    12:00 +26°C° 0 mm 4 mps 765 mmHg 35%
    13:00 +27°C° 0 mm 5 mps 764 mmHg 34%
    14:00 +27°C° 0 mm 5 mps 764 mmHg 36%
    15:00 +26°C° 0 mm 5 mps 764 mmHg 39%
    16:00 +25°C° 0 mm 5 mps 764 mmHg 42%
    17:00 +23°C° 0 mm 5 mps 764 mmHg 47%
    18:00 +21°C° 0 mm 5 mps 764 mmHg 53%
    19:00 +20°C° 0 mm 5 mps 764 mmHg 58%
    20:00 +19°C° 0 mm 4 mps 764 mmHg 58%
    21:00 +19°C° 0 mm 4 mps 764 mmHg 59%
    22:00 +18°C° 0 mm 4 mps 764 mmHg 59%
    23:00 +18°C° 0 mm 4 mps 764 mmHg 57%

    24 September, Sunday

    Time Temperature Precipitation Wind Pressure Humidity
    00:00 +18°C° 0 mm 3 mps 764 mmHg 56%
    01:00 +17°C° 0 mm 3 mps 764 mmHg 54%
    02:00 +17°C° 0 mm 3 mps 764 mmHg 54%
    03:00 +17°C° 0 mm 3 mps 763 mmHg 53%
    04:00 +17°C° 0 mm 3 mps 763 mmHg 53%
    05:00 +18°C° 0 mm 3 mps 763 mmHg 51%
    06:00 +19°C° 0 mm 3 mps 763 mmHg 49%
    07:00 +20°C° 0 mm 3 mps 763 mmHg 48%
    08:00 +21°C° 0 mm 3 mps 763 mmHg 43%
    09:00 +24°C° 0 mm 3 mps 763 mmHg 39%
    10:00 +26°C° 0 mm 3 mps 763 mmHg 34%
    11:00 +27°C° 0 mm 4 mps 763 mmHg 34%
    12:00 +28°C° 0 mm 4 mps 763 mmHg 33%
    13:00 +28°C° 0 mm 5 mps 762 mmHg 33%
    14:00 +28°C° 0 mm 5 mps 762 mmHg 36%
    15:00 +27°C° 0 mm 5 mps 762 mmHg 39%
    16:00 +27°C° 0 mm 5 mps 762 mmHg 42%
    17:00 +25°C° 0 mm 5 mps 762 mmHg 47%
    18:00 +22°C° 0 mm 4 mps 762 mmHg 52%
    19:00 +21°C° 0 mm 4 mps 762 mmHg 57%
    20:00 +20°C° 0 mm 4 mps 762 mmHg 57%
    21:00 +20°C° 0 mm 4 mps 762 mmHg 57%
    22:00 +19°C° 0 mm 3 mps 763 mmHg 57%
    23:00 +19°C° 0 mm 4 mps 762 mmHg 57%

    25 September, Monday

    Time Temperature Precipitation Wind Pressure Humidity
    00:00 +19°C° 0 mm 4 mps 762 mmHg 56%
    01:00 +19°C° 0 mm 4 mps 762 mmHg 56%
    02:00 +19°C° 0 mm 4 mps 762 mmHg 55%
    03:00 +19°C° 0 mm 4 mps 762 mmHg 53%
    04:00 +19°C° 0 mm 3 mps 762 mmHg 52%
    05:00 +19°C° 0 mm 3 mps 762 mmHg 51%
    06:00 +20°C° 0 mm 3 mps 762 mmHg 49%
    07:00 +21°C° 0 mm 3 mps 762 mmHg 47%
    08:00 +24°C° 0 mm 2 mps 762 mmHg 43%
    09:00 +26°C° 0 mm 2 mps 762 mmHg 39%
    10:00 +28°C° 0 mm 2 mps 762 mmHg 35%
    11:00 +28°C° 0 mm 2 mps 762 mmHg 35%
    12:00 +28°C° 0 mm 3 mps 762 mmHg 34%
    13:00 +29°C° 0 mm 3 mps 761 mmHg 34%
    14:00 +28°C° 0 mm 3 mps 761 mmHg 37%
    15:00 +27°C° 0 mm 4 mps 761 mmHg 40%
    16:00 +26°C° 0 mm 4 mps 761 mmHg 43%
    17:00 +25°C° 0 mm 4 mps 761 mmHg 48%
    18:00 +23°C° 0 mm 4 mps 762 mmHg 53%
    19:00 +22°C° 0 mm 3 mps 762 mmHg 58%
    20:00 +22°C° 0.1 mm 4 mps 762 mmHg 62%
    21:00 +21°C° 0.1 mm 4 mps 762 mmHg 67%
    22:00 +20°C° 0.1 mm 4 mps 762 mmHg 71%
    23:00 +20°C° 0.1 mm 4 mps 762 mmHg 73%
    Show more